TimeHST,TemperatureF,Dew PointF,Humidity,Sea Level PressureIn,VisibilityMPH,Wind Direction,Wind SpeedMPH,Gust SpeedMPH,PrecipitationIn,Events,Conditions,WindDirDegrees,DateUTC
12:57 AM,82.9,66.0,56,30.02,10.0,ENE,12.7,19.6,N/A,,Partly Cloudy,70,2013-08-18 10:57:00
1:57 AM,84.0,66.9,56,30.01,10.0,East,8.1,-,N/A,,Scattered Clouds,80,2013-08-18 11:57:00
2:57 AM,73.9,66.9,79,29.99,10.0,East,9.2,-,N/A,,Partly Cloudy,90,2013-08-18 12:57:00
3:57 AM,75.0,66.9,76,29.99,10.0,East,5.8,-,N/A,,Partly Cloudy,90,2013-08-18 13:57:00
4:57 AM,73.9,66.0,76,29.99,10.0,East,5.8,-,N/A,,Partly Cloudy,100,2013-08-18 14:57:00
5:57 AM,75.0,66.9,76,30.00,10.0,Variable,4.6,-,N/A,,Partly Cloudy,0,2013-08-18 15:57:00
6:57 AM,77.4,66.0,68,30.01,10.0,East,6.9,-,N/A,,Clear,80,2013-08-18 16:57:00
7:57 AM,77.4,66.9,70,30.02,10.0,ENE,8.1,-,N/A,,Partly Cloudy,60,2013-08-18 17:57:00
8:16 AM,84.2,66.2,55,30.04,6.2,ENE,9.2,-,N/A,,Overcast,70,2013-08-18 18:16:00
8:57 AM,81.9,68.0,63,30.04,10.0,ENE,9.2,-,N/A,,Scattered Clouds,70,2013-08-18 18:57:00
9:57 AM,82.4,68.0,62,30.04,10.0,ENE,11.5,19.6,N/A,,Scattered Clouds,70,2013-08-18 19:57:00
10:24 AM,82.4,68.0,62,30.05,6.2,ENE,11.5,-,N/A,,Mostly Cloudy,60,2013-08-18 20:24:00
10:33 AM,82.4,68.0,62,30.05,6.2,ENE,10.4,19.6,N/A,,Scattered Clouds,70,2013-08-18 20:33:00
10:57 AM,83.5,68.0,59,30.03,10.0,ENE,9.2,18.4,N/A,,Scattered Clouds,60,2013-08-18 20:57:00
11:57 AM,83.8,70.0,63,30.03,10.0,ENE,9.2,18.4,N/A,,Scattered Clouds,60,2013-08-18 21:57:00
12:30 PM,-9999,-9999,N/A,-9999,-9999.0,North,-9999.0,-,N/A,,Unknown,0,2013-08-18 22:30:00
12:57 PM,83.3,70.0,64,30.01,10.0,ENE,10.4,-,N/A,,Scattered Clouds,60,2013-08-18 22:57:00
1:57 PM,84.7,69.1,59,30.00,10.0,NE,13.8,18.4,N/A,,Scattered Clouds,50,2013-08-18 23:57:00
2:57 PM,84.7,70.0,61,29.99,10.0,NE,11.5,-,N/A,,Scattered Clouds,50,2013-08-19 00:57:00
3:57 PM,84.7,70.0,61,29.98,10.0,NE,6.9,16.1,N/A,,Scattered Clouds,50,2013-08-19 01:57:00
4:57 PM,84.4,70.0,62,29.98,10.0,NE,10.4,-,N/A,,Mostly Cloudy,50,2013-08-19 02:57:00
5:57 PM,82.0,70.0,67,29.98,10.0,NE,10.4,-,N/A,,Overcast,40,2013-08-19 03:57:00
6:57 PM,78.4,70.0,75,29.99,10.0,NE,6.9,-,N/A,,Scattered Clouds,40,2013-08-19 04:57:00
7:57 PM,77.0,68.0,74,30.01,10.0,ENE,6.9,-,N/A,,Scattered Clouds,60,2013-08-19 05:57:00
8:57 PM,75.7,69.1,80,30.02,10.0,ENE,6.9,-,N/A,,Partly Cloudy,70,2013-08-19 06:57:00
9:30 PM,-9999,-9999,N/A,-9999,-9999.0,North,-9999.0,-,N/A,,Unknown,0,2013-08-19 07:30:00
9:57 PM,75.7,70.0,82,30.04,10.0,ENE,5.8,-,N/A,,Mostly Cloudy,70,2013-08-19 07:57:00
10:19 PM,-9999,-9999,N/A,-9999,-9999.0,North,-9999.0,-,N/A,,Unknown,0,2013-08-19 08:19:00
10:57 PM,76.1,70.0,81,30.04,10.0,Variable,4.6,-,N/A,,Mostly Cloudy,0,2013-08-19 08:57:00
11:57 PM,76.1,66.0,71,30.04,10.0,NE,6.9,-,N/A,,Overcast,50,2013-08-19 09:57:00